TimeCST,TemperatureF,Dew PointF,Humidity,Sea Level PressureIn,VisibilityMPH,Wind Direction,Wind SpeedMPH,Gust SpeedMPH,PrecipitationIn,Events,Conditions,WindDirDegrees,DateUTC
12:56 AM,54.0,50.0,86,30.17,10.0,North,5.8,-,N/A,,Overcast,10,2012-11-15 06:56:00
1:56 AM,54.0,50.0,86,30.16,10.0,NNE,6.9,-,N/A,,Overcast,30,2012-11-15 07:56:00
2:31 AM,53.6,50.0,88,30.20,10.0,North,8.1,-,N/A,,Overcast,10,2012-11-15 08:31:00
2:56 AM,54.0,50.0,86,30.16,10.0,North,6.9,-,N/A,,Overcast,360,2012-11-15 08:56:00
3:56 AM,53.1,50.0,89,30.16,10.0,NNE,5.8,-,N/A,,Overcast,30,2012-11-15 09:56:00
4:06 AM,53.6,50.0,88,30.19,10.0,NNE,5.8,-,N/A,,Overcast,20,2012-11-15 10:06:00
4:25 AM,53.6,50.0,88,30.20,10.0,North,5.8,-,N/A,,Overcast,10,2012-11-15 10:25:00
4:45 AM,53.6,50.0,88,30.21,10.0,North,8.1,-,N/A,,Overcast,360,2012-11-15 10:45:00
4:56 AM,53.1,50.0,89,30.17,10.0,NNE,6.9,-,N/A,,Overcast,20,2012-11-15 10:56:00
5:35 AM,53.6,48.2,82,30.21,10.0,NNE,4.6,-,N/A,,Overcast,20,2012-11-15 11:35:00
5:42 AM,53.6,48.2,82,30.21,10.0,NNE,6.9,-,N/A,,Overcast,30,2012-11-15 11:42:00
5:53 AM,53.6,48.2,82,30.22,10.0,NNE,5.8,-,N/A,,Overcast,30,2012-11-15 11:53:00
5:56 AM,53.1,48.9,86,30.18,10.0,NNE,5.8,-,N/A,,Overcast,30,2012-11-15 11:56:00
6:51 AM,53.6,50.0,88,30.23,10.0,NNE,5.8,-,N/A,,Overcast,30,2012-11-15 12:51:00
6:56 AM,53.1,50.0,89,30.20,10.0,NNE,5.8,-,N/A,,Overcast,30,2012-11-15 12:56:00
7:06 AM,53.6,48.2,82,30.23,10.0,NNE,6.9,-,N/A,,Overcast,30,2012-11-15 13:06:00
7:34 AM,53.6,48.2,82,30.24,10.0,NNE,6.9,-,N/A,,Overcast,30,2012-11-15 13:34:00
7:44 AM,53.6,48.2,82,30.24,10.0,NNE,6.9,-,N/A,,Overcast,30,2012-11-15 13:44:00
7:51 AM,53.6,48.2,82,30.25,10.0,NNE,6.9,-,N/A,,Overcast,20,2012-11-15 13:51:00
7:56 AM,53.1,48.9,86,30.21,10.0,North,9.2,-,N/A,,Overcast,10,2012-11-15 13:56:00
8:13 AM,53.6,48.2,82,30.26,10.0,North,11.5,-,N/A,,Overcast,10,2012-11-15 14:13:00
8:56 AM,54.0,46.9,77,30.22,10.0,North,10.4,-,N/A,,Overcast,10,2012-11-15 14:56:00
9:05 AM,53.6,46.4,77,30.26,10.0,North,12.7,-,N/A,,Overcast,360,2012-11-15 15:05:00
9:56 AM,57.0,46.9,69,30.22,10.0,NNE,8.1,-,N/A,,Overcast,30,2012-11-15 15:56:00
10:56 AM,60.1,46.9,62,30.20,10.0,NNE,10.4,-,N/A,,Overcast,30,2012-11-15 16:56:00
11:21 AM,60.8,46.4,59,30.23,10.0,NE,10.4,-,N/A,,Scattered Clouds,40,2012-11-15 17:21:00
11:39 AM,60.8,46.4,59,30.23,10.0,North,10.4,-,N/A,,Mostly Cloudy,10,2012-11-15 17:39:00
11:56 AM,61.0,46.0,58,30.19,10.0,NE,10.4,-,N/A,,Overcast,40,2012-11-15 17:56:00
12:56 PM,60.1,45.0,57,30.17,10.0,NE,8.1,-,N/A,,Scattered Clouds,40,2012-11-15 18:56:00
1:36 PM,60.8,46.4,59,30.20,1.8,NE,12.7,-,N/A,,Haze,50,2012-11-15 19:36:00
1:46 PM,62.6,46.4,55,30.20,5.0,NNE,11.5,-,N/A,,Haze,20,2012-11-15 19:46:00
1:56 PM,62.1,46.0,56,30.17,10.0,NNE,11.5,-,N/A,,Scattered Clouds,20,2012-11-15 19:56:00
2:06 PM,60.8,44.6,55,30.20,10.0,NNE,9.2,-,N/A,,Mostly Cloudy,30,2012-11-15 20:06:00
2:14 PM,60.8,44.6,55,30.20,10.0,NNE,10.4,-,N/A,,Partly Cloudy,30,2012-11-15 20:14:00
2:54 PM,60.8,44.6,55,30.19,10.0,NNE,11.5,-,N/A,,Mostly Cloudy,30,2012-11-15 20:54:00
2:56 PM,57.9,45.0,62,30.16,10.0,NNE,10.4,-,N/A,,Mostly Cloudy,30,2012-11-15 20:56:00
3:03 PM,60.8,44.6,55,30.19,10.0,NE,10.4,-,N/A,,Partly Cloudy,40,2012-11-15 21:03:00
3:56 PM,57.0,45.0,64,30.17,10.0,NE,10.4,-,N/A,,Mostly Cloudy,50,2012-11-15 21:56:00
4:36 PM,53.6,44.6,72,30.21,10.0,NNE,9.2,-,N/A,,Scattered Clouds,30,2012-11-15 22:36:00
4:56 PM,52.0,44.1,74,30.18,10.0,NNE,8.1,-,N/A,,Clear,20,2012-11-15 22:56:00
5:56 PM,48.9,43.0,80,30.20,10.0,NE,4.6,-,N/A,,Clear,40,2012-11-15 23:56:00
6:56 PM,48.9,43.0,80,30.20,10.0,NE,4.6,-,N/A,,Clear,50,2012-11-16 00:56:00
7:56 PM,48.0,43.0,83,30.21,10.0,NE,5.8,-,N/A,,Clear,40,2012-11-16 01:56:00
8:56 PM,46.9,42.1,83,30.21,10.0,NNE,4.6,-,N/A,,Clear,30,2012-11-16 02:56:00
9:56 PM,46.0,42.1,86,30.22,10.0,NNE,4.6,-,N/A,,Clear,20,2012-11-16 03:56:00
10:56 PM,39.9,37.9,93,30.22,10.0,NNW,3.5,-,N/A,,Clear,340,2012-11-16 04:56:00
11:56 PM,42.1,39.9,92,30.22,10.0,North,3.5,-,N/A,,Clear,360,2012-11-16 05:56:00